Miscellaneous Local Product
Issued by NWS North Platte, NE

Home | Current Version | Previous Version | Text Only | Print | Product List | Glossary On
Versions: 1 2 3 4 5 6 7 8 9 10 11 12 13 14 15 16 17 18 19 20 21 22 23 24 25 26 27 28 29 30 31 32 33 34 35 36 37 38 39 40 41 42 43 44 45 46 47 48 49 50
000
AXUS43 KLBF 250610
MISLBF


WESTERN AND NORTH CENTRAL NEBRASKA HOURLY WEATHER ROUNDUP
NATIONAL WEATHER SERVICE NORTH PLATTE NE
100 AM CDT TUE APR 25 2017

NOTE: "FAIR" INDICATES FEW OR NO CLOUDS BELOW 12,000 FEET WITH NO
SIGNIFICANT WEATHER AND/OR OBSTRUCTIONS TO VISIBILITY.

NOTE: STATIONS NOT REPORTING VARIABLES SUCH AS SKY/WEATHER OR
PRESSURE ARE PROVIDED BY RAWS AND APRS NETWORKS AND ARE NOT UNDER
NATIONAL WEATHER SERVICE QUALITY CONTROL.

...OBSERVATIONS IN AND NEAR THE EASTERN PANHANDLE OF NEBRASKA...

CITY           SKY/WX    TMP DP  RH WIND       PRES   REMARKS
PINE RIDGE     CLOUDY    48  41  76 E14G23    29.59S
CHADRON        RAIN      48  43  82 SE13      29.57S
ALLIANCE       LGT RAIN  47  44  90 E14       29.53F
SIDNEY         PTCLDY    45  42  89 E10       29.53F
CRESCENT LAKE    N/A     46  44  92 E10         N/A
$$

...OBSERVATIONS IN NORTHERN NEBRASKA AND FAR SOUTHERN SOUTH DAKOTA...

CITY           SKY/WX    TMP DP  RH WIND       PRES   REMARKS
WINNER         FAIR      38  35  89 N6        29.63F WCI  33
VALENTINE      CLOUDY    43  36  76 E8        29.63R
THEDFORD       CLOUDY    46  41  81 CALM      29.63S
AINSWORTH      CLOUDY    40  39  95 CALM      29.64R
O`NEILL        PTCLDY    42  38  84 N8        29.62R
ORD            CLOUDY    48  39  71 N13       29.55F
BROKEN BOW     CLOUDY    49  40  71 NE7G20    29.58F
VALENTINE NWR    N/A     44  39  84 NE7         N/A
HALSEY           N/A     46  39  78 NE6         N/A
BUTTE            N/A     40  36  86 CALM        N/A
CHAMBERS         N/A     44  39  83 CALM        N/A
EWING            N/A     45  40  83 N8          N/A
$$

...OBSERVATIONS IN SOUTHWEST NEBRASKA AND FAR NORTHEAST COLORADO...

CITY           SKY/WX    TMP DP  RH WIND       PRES   REMARKS
HOLYOKE        FAIR      52  46  82 NE10      29.52F
IMPERIAL       LGT RAIN  51  44  77 N13       29.56R
OGALLALA       CLOUDY    51  45  80 E10       29.57F
NORTH PLATTE   CLOUDY    51  43  74 NE7       29.60R
MCCOOK         CLOUDY    55  43  63 NE7       29.54R
LEXINGTON      CLOUDY    54  40  58 NE18      29.55F
STAPLETON        N/A     46  42  86 CALM        N/A
GOTHENBURG       N/A     55  39  54 NE6         N/A
CALLAWAY         N/A     50  42  72 NE12        N/A
$$

...OBSERVATIONS IN CENTRAL LINCOLN COUNTY AREA...

CITY           SKY/WX    TMP DP  RH WIND       PRES   REMARKS
N.P. AIRPORT   CLOUDY    51  43  74 NE7       29.60R
N.P. DOWNTOWN    N/A     49  43  81 NE5G12      N/A
N.P. HILLCREST   N/A     47  43  87 NE21        N/A
$$

...SOME OBSERVATIONS FROM AROUND THE REGION...

CITY           SKY/WX    TMP DP  RH WIND       PRES   REMARKS
DENVER         CLOUDY    44  37  76 N8        29.55R
LIMON          CLOUDY    49  38  65 VRB6      29.52F
ASPEN          LGT SNOW  33  32  96 N17G26    29.73R VSB 3/4 WCI  22
LARAMIE        CLOUDY    34  31  88 SW20      29.60F WCI  23
CASPER         LGT RAIN  41  38  89 SW21      29.49S
CHEYENNE       LGT RAIN  35  33  92 S10       29.61F WCI  27
SCOTTSBLUFF    HVY RAIN  46  42  86 W24G39    29.59R FOG
GRAND ISLAND   PTCLDY    50  41  71 NE12      29.57R
OMAHA          PTCLDY    57  46  66 W7        29.52S
SIOUX FALLS    CLOUDY    43  40  89 N9        29.56F
PIERRE         CLOUDY    39  33  79 N14       29.66S WCI  31
RAPID CITY     LGT RAIN  39  34  82 NE10      29.65R WCI  32
BISMARCK       CLOUDY    34  29  82 N10       29.75R WCI  26
KANSAS CITY    MOCLDY    61  44  53 S10       29.58R
HILL CITY      CLOUDY    60  46  59 NE12      29.48F
WICHITA        CLOUDY    63  48  58 SE16      29.50F
DODGE CITY     PTCLDY    58  50  75 SE17      29.40F
OKLAHOMA CITY  CLOUDY    63  50  62 S20G30    29.51F
DALLAS         PTCLDY    69  52  54 S18       29.59F
AMARILLO       CLOUDY    68  25  19 SW20      29.48F
$$




USA.gov is the U.S. government's official web portal to all federal, state and local government web resources and services.